Weather History for KAAT - September, 2013

Change the Weather History Date:

Wednesday, September 4, 2013

  Actual Average Record
Temperature  
Mean Temperature 65 °F 60 °F  
Max Temperature 87 °F 81 °F 106 °F (1955)
Min Temperature 43 °F 38 °F 28 °F (1971)
Degree Days  
Heating Degree Days 0 6  
Month to date heating degree days 0 21  
Since 1 July heating degree days 70 132  
Cooling Degree Days 0 0  
Month to date cooling degree days 6 3  
Year to date cooling degree days 261 154  
Growing Degree Days 14 (Base 50)    
Moisture  
Dew Point 41 °F    
Average Humidity 54    
Maximum Humidity 89    
Minimum Humidity 19    
Precipitation  
Precipitation 0.00 in 0.02 in 0.07 in (1960)
Month to date precipitation 0.08 0.06  
Year to date precipitation 5.23 9.20  
Sea Level Pressure  
Sea Level Pressure 29.97 in    
Wind  
Wind Speed 7 mph (SSW)    
Max Wind Speed 26 mph    
Max Gust Speed 40 mph    
Visibility 10 miles    
Events      
T = Trace of Precipitation, MM = Missing Value Source: NWS Daily Summary

Daily Weather History Graph

Daily Weather History Graph

Search for Another Location

Airport or City:

Trip Planner

Search our weather history database for the weather conditions in past years. The results will help you decide how hot, cold, wet, or windy it might be!

Date:

Astronomy

Sep. 04, 2013 Rise Set
Actual Time 6:31 AM PDT 7:29 PM PDT
Civil Twilight 6:03 AM PDT 7:57 PM PDT
Nautical Twilight 5:29 AM PDT 8:31 PM PDT
Astronomical Twilight 4:54 AM PDT 9:06 PM PDT
Moon 5:49 AM PDT 6:51 PM PDT
Length of Visible Light 13h 54m
Length of Day
12h 57m
Waning Crescent, 1% of the Moon is Illuminated
Sep 4
Waning Crescent
Sep 5
New
Sep 12
First Quarter
Sep 19
Full
Sep 26
Last Quarter

Hourly Weather History & Observations

Time (PDT) Temp. Dew Point Humidity Pressure Visibility Wind Dir Wind Speed Gust Speed Precip Events Conditions
12:55 AM 48.9 °F 41.0 °F 74% 30.00 in 10.0 mi Calm Calm - N/A   Clear
1:55 AM 48.9 °F 39.9 °F 71% 29.99 in 10.0 mi Calm Calm - N/A   Scattered Clouds
2:55 AM 48.9 °F 39.9 °F 71% 29.99 in 10.0 mi Calm Calm - N/A   Clear
3:55 AM 46.9 °F 39.0 °F 74% 30.00 in 10.0 mi Calm Calm - N/A   Scattered Clouds
4:55 AM 44.1 °F 39.0 °F 82% 29.99 in 10.0 mi Calm Calm - N/A   Clear
5:55 AM 44.1 °F 39.9 °F 85% 30.00 in 10.0 mi Calm Calm - N/A   Clear
6:55 AM 43.0 °F 39.0 °F 86% 30.03 in 10.0 mi Calm Calm - N/A   Clear
7:55 AM 52.0 °F 41.0 °F 66% 30.03 in 10.0 mi Calm Calm - N/A   Clear
8:55 AM 62.1 °F 44.1 °F 52% 30.02 in 10.0 mi Calm Calm - N/A   Clear
9:55 AM 70.0 °F 48.0 °F 46% 30.01 in 10.0 mi West 4.6 mph - N/A   Clear
10:55 AM 77.0 °F 44.1 °F 31% 29.98 in 10.0 mi SSE 12.7 mph 21.9 mph N/A   Clear
11:55 AM 82.9 °F 39.0 °F 21% 29.96 in 10.0 mi South 21.9 mph 26.5 mph N/A   Clear
12:55 PM 84.0 °F 39.9 °F 21% 29.95 in 10.0 mi South 18.4 mph 32.2 mph N/A   Clear
1:55 PM 84.9 °F 44.1 °F 24% 29.94 in 10.0 mi SSE 17.3 mph 40.3 mph N/A   Partly Cloudy
2:55 PM 86.0 °F 39.9 °F 20% 29.92 in 10.0 mi South 21.9 mph 34.5 mph N/A   Mostly Cloudy
3:55 PM 82.0 °F 41.0 °F 23% 29.92 in 10.0 mi South 20.7 mph 28.8 mph N/A   Scattered Clouds
4:55 PM 81.0 °F 42.1 °F 25% 29.91 in 10.0 mi South 17.3 mph - N/A   Mostly Cloudy
5:34 PM 84.2 °F 37.4 °F 19% 30.02 in 10.0 mi WSW 12.7 mph 35.7 mph N/A   Overcast
5:55 PM 82.9 °F 39.9 °F 22% 29.90 in 10.0 mi SSE 8.1 mph 17.3 mph N/A   Mostly Cloudy
6:20 PM 80.6 °F 39.2 °F 23% 30.01 in 10.0 mi SW 16.1 mph - N/A   Partly Cloudy
6:55 PM 78.1 °F 39.9 °F 25% 29.92 in 10.0 mi West 13.8 mph - N/A   Clear
7:55 PM 71.1 °F 39.9 °F 32% 29.94 in 10.0 mi West 8.1 mph - N/A   Clear
8:55 PM 68.0 °F 39.0 °F 35% 29.95 in 10.0 mi Calm Calm - N/A   Clear
9:55 PM 57.9 °F 39.0 °F 49% 29.95 in 10.0 mi SW 3.5 mph - N/A   Clear
10:55 PM 55.9 °F 39.0 °F 53% 29.96 in 10.0 mi Calm Calm - N/A   Clear
11:55 PM 55.0 °F 42.1 °F 62% 29.95 in 10.0 mi SSE 3.5 mph - N/A   Clear